Clinton-Sherman, OK

11:51 PM CDT on May 29, 2017 (GMT -0500)
Clinton-Sherman

Weather History for KCSM - May, 2014

Change the Weather History Date:

Sunday, May 25, 2014

  Actual Average Record
Temperature  
Mean Temperature 69 °F -  
Max Temperature 79 °F 82 °F 99 °F (2006)
Min Temperature 60 °F 58 °F 46 °F (2001)
Cooling Degree Days 4    
Growing Degree Days 19 (Base 50)    
Moisture  
Dew Point 60 °F    
Average Humidity 79    
Maximum Humidity 96    
Minimum Humidity 56    
Precipitation  
Precipitation 0.05 in - - ()
Sea Level Pressure  
Sea Level Pressure 29.96 in    
Wind  
Wind Speed 9 mph (SSW)    
Max Wind Speed 32 mph    
Max Gust Speed 54 mph    
Visibility 10 miles    
Events Rain    
Averages and records for this station are not official NWS values.
T = Trace of Precipitation, MM = Missing Value Source: NWS Daily Summary

Daily Weather History Graph

Daily Weather History Graph

Search for Another Location

Airport or City:

Trip Planner

Search our weather history database for the weather conditions in past years. The results will help you decide how hot, cold, wet, or windy it might be!

Date:

Astronomy

May. 25, 2014 Rise Set
Actual Time 6:26 AM CDT 8:41 PM CDT
Civil Twilight 5:57 AM CDT 9:10 PM CDT
Nautical Twilight 5:21 AM CDT 9:46 PM CDT
Astronomical Twilight 4:43 AM CDT 10:25 PM CDT
Moon 4:24 AM CDT (5/25) 5:50 PM CDT (5/25)
Length of Visible Light 15h 13m
Length of Day
14h 15m
Waning Crescent, 10% of the Moon is Illuminated
May 25
Waning Crescent
May 28
New
Jun 5
First Quarter
Jun 12
Full
Jun 19
Last Quarter

Hourly Weather History & Observations

Time (CDT) Temp. Dew Point Humidity Pressure Visibility Wind Dir Wind Speed Gust Speed Precip Events Conditions
1:53 AM 64.0 °F 63.0 °F 96% 29.93 in 9.0 mi East 4.6 mph - N/A   Mostly Cloudy
2:51 AM 66.2 °F 64.4 °F 94% 29.99 in 10.0 mi East 3.5 mph - N/A   Overcast
2:53 AM 66.0 °F 64.0 °F 93% 29.94 in 10.0 mi ESE 4.6 mph - N/A   Overcast
4:53 AM 66.9 °F 64.9 °F 93% 29.95 in 9.0 mi Calm Calm - N/A   Overcast
5:09 AM 60.8 °F 57.2 °F 88% 30.03 in 4.0 mi WNW 32.2 mph 54.1 mph 0.03 in Rain Rain
5:15 AM 60.8 °F 57.2 °F 88% 30.03 in 6.0 mi WNW 21.9 mph 54.1 mph 0.04 in Rain Light Rain
5:23 AM 60.8 °F 57.2 °F 88% 30.03 in 9.0 mi WNW 18.4 mph 28.8 mph 0.05 in Rain Light Rain
5:53 AM 61.0 °F 57.0 °F 87% 29.98 in 10.0 mi WNW 10.4 mph - 0.05 in Rain Light Rain
6:53 AM 62.1 °F 55.9 °F 80% 29.96 in 10.0 mi WNW 9.2 mph - 0.00 in   Overcast
7:53 AM 62.1 °F 57.0 °F 84% 29.94 in 10.0 mi North 6.9 mph - 0.00 in   Mostly Cloudy
8:53 AM 64.0 °F 57.9 °F 80% 29.92 in 10.0 mi East 6.9 mph - N/A   Partly Cloudy
10:53 AM 66.0 °F 60.1 °F 81% 29.98 in 10.0 mi SW 11.5 mph 16.1 mph 0.00 in   Overcast
11:53 AM 66.0 °F 60.1 °F 81% 29.96 in 10.0 mi ESE 4.6 mph - 0.00 in Rain Light Rain
12:53 PM 69.1 °F 60.1 °F 73% 29.98 in 10.0 mi SSE 10.4 mph - 0.00 in   Clear
1:53 PM 71.1 °F 61.0 °F 70% 29.97 in 10.0 mi Variable 3.5 mph - N/A   Clear
2:53 PM 77.0 °F 62.1 °F 60% 29.96 in 10.0 mi SSW 11.5 mph 19.6 mph N/A   Clear
3:53 PM 78.1 °F 61.0 °F 56% 29.94 in 10.0 mi South 12.7 mph 18.4 mph N/A   Clear
4:53 PM 75.9 °F 61.0 °F 60% 29.91 in 10.0 mi SSW 13.8 mph - N/A   Clear
5:53 PM 75.9 °F 61.0 °F 60% 29.90 in 10.0 mi South 10.4 mph - N/A   Clear
6:53 PM 75.0 °F 60.1 °F 60% 29.90 in 10.0 mi South 8.1 mph - N/A   Clear
7:53 PM 73.0 °F 61.0 °F 66% 29.91 in 10.0 mi South 6.9 mph - N/A   Clear
8:53 PM 69.1 °F 63.0 °F 81% 29.94 in 10.0 mi SSW 3.5 mph - N/A   Clear
9:53 PM 64.9 °F 61.0 °F 87% 29.97 in 10.0 mi SSW 5.8 mph - N/A   Clear
10:53 PM 64.9 °F 60.1 °F 84% 29.98 in 10.0 mi South 6.9 mph - N/A   Clear
11:53 PM 63.0 °F 59.0 °F 87% 29.98 in 10.0 mi SSE 6.9 mph - N/A   Clear